Station 42026 - C22 - Loop Current Pressure Point Buoy, 70m Isobath Image indicating link to RSS feed of recent meteorological observations for station 42026


Conditions at 42026 as of
(1:35 pm CDT)
1835 GMT on 06/22/2024:
     

Click on the graph icon in the table below to see a time series plot of the last five days of that observation.

5-day plot - Wind Direction Wind Direction (WDIR): S ( 180 deg true )
5-day plot - Wind Speed Wind Speed (WSPD): 7.8 kts
5-day plot - Wind Gust Wind Gust (GST): 11.7 kts
5-day plot - Atmospheric Pressure Atmospheric Pressure (PRES):30.03 in
5-day plot - Air Temperature Air Temperature (ATMP): 80.8 °F
5-day plot - Water Temperature Water Temperature (WTMP): 83.7 °F
5-day plot - Dew Point Dew Point (DEWP): 77.2 °F
5-day plot - Heat Index Heat Index (HEAT): 87.6 °F
5-day plot - Wind Speed at 10 Meters Wind Speed at 10 meters (WSPD10M): 9.7 kts
5-day plot - Wind Speed at 20 Meters Wind Speed at 20 meters (WSPD20M): 9.7 kts
5-day plot -  Wind Speed, Wind Gust and Atmospheric Pressure Combined plot of Wind Speed, Gust, and Air Pressure
Previous observations
TIME
(CDT)
5-day plot - Wind Direction
WDIR
 
5-day plot - Wind Speed
WSPD
kts
5-day plot - Wind Gust
GST
kts
5-day plot - Wave Height
WVHT
ft
5-day plot - Dominant Wave Period
DPD
sec
5-day plot - Average Wave Period
APD
sec
5-day plot - Mean Wave Direction
MWD
 
5-day plot - Atmospheric Pressure
PRES
in
5-day plot - Pressure Tendency
PTDY
in
5-day plot - Air Temperature
ATMP
°F
5-day plot - Water Temperature
WTMP
°F
5-day plot - Dew Point
DEWP
°F
5-day plot - Salinity
SAL
psu
5-day plot - Visibility
VIS
nmi
5-day plot - Tide (above MLLW)
TIDE
ft
2024-06-22 01:05 pm S 11.7 15.5----30.03- 80.1 83.7 76.8---
2024-06-22 12:35 pm E 13.6 17.5----30.04- 82.9 83.7 79.0---
2024-06-22 12:05 pm E 13.6 17.5----30.04- 83.1 83.8 79.7---
2024-06-22 11:35 am E 9.7 13.6----30.04- 82.8 83.7 79.3---
2024-06-22 11:05 amESE 7.8 9.7----30.04- 82.6 83.5 79.0---
2024-06-22 10:35 amESE 9.7 11.7----30.04- 82.4 83.5 78.6---
2024-06-22 10:05 amESE 9.7 13.6----30.06- 81.7 83.5 78.4---
2024-06-22 09:35 am SE 15.5 19.4----30.05- 81.3 83.5 78.4---
2024-06-22 09:05 am E 13.6 15.5----30.04- 83.8 83.5 81.0---
2024-06-22 08:35 am E 9.7 13.6----30.04- 83.7 83.7 80.6---
2024-06-22 08:05 am E 9.7 13.6----30.03- 83.5 83.7 80.4---
2024-06-22 07:35 am E 9.7 11.7----30.03- 83.5 83.7 79.9---
2024-06-22 07:05 am E 9.7 11.7----30.02- 83.3 83.7 79.7---
2024-06-22 06:35 am E 9.7 11.7----30.01- 82.9 83.7 79.3---
2024-06-22 06:05 am E 9.7 11.7----30.00- 82.8 83.7 79.3---
2024-06-22 05:35 am E 7.8 9.7----30.00- 82.4 83.7 79.7---
2024-06-22 05:05 amENE 5.8 7.8----30.01- 82.2 83.7 79.3---
2024-06-22 04:35 am E 5.8 7.8----30.00- 82.2 83.7 79.3---
2024-06-22 04:05 amESE 3.9 5.8----30.00- 82.2 83.7 79.0---
2024-06-22 03:35 amESE 3.9 5.8----29.99- 82.2 83.7 78.3---
2024-06-22 03:05 am SE 3.9 5.8----30.00- 82.2 83.7 78.4---
2024-06-22 02:35 am SE 3.9 5.8----30.00- 82.2 83.7 78.4---
2024-06-22 02:05 am SE 5.8 5.8----30.00- 82.2 83.7 78.1---
2024-06-22 01:35 amSSE 5.8 7.8----30.00- 82.2 83.8 78.8---
2024-06-22 01:05 amSSE 5.8 7.8----30.02- 82.0 83.8 79.0---
2024-06-22 12:35 amSSE 7.8 9.7----30.03- 82.2 83.8 79.2---
2024-06-22 12:05 am SE 9.7 11.7----30.04- 81.7 83.8 78.4---
2024-06-21 11:35 pm SE 9.7 11.7----30.05- 81.0 83.8 78.4---
2024-06-21 11:05 pmSSE 13.6 17.5----30.05- 80.4 83.8 77.9---
2024-06-21 10:35 pmESE 9.7 11.7----30.04- 83.5 83.8 80.1---
2024-06-21 10:05 pm E 7.8 11.7----30.05- 79.7 83.8 74.5---
2024-06-21 09:35 pm E 9.7 11.7----30.03- 83.8 83.8 81.9---
2024-06-21 09:05 pmESE 9.7 13.6----30.03- 83.8 83.8 81.5---
2024-06-21 08:35 pm E 11.7 13.6----30.03- 83.8 83.8 81.3---
2024-06-21 08:05 pm E 11.7 13.6----30.02- 83.7 83.8 81.0---
2024-06-21 07:35 pm E 11.7 15.5----30.02- 83.5 83.8 81.0---
2024-06-21 07:05 pm E 11.7 13.6----30.01- 83.5 83.8 80.6---
2024-06-21 06:35 pm E 9.7 11.7----30.00- 83.7 84.0 80.4---
2024-06-21 06:05 pm E 9.7 13.6----29.98- 83.5 84.0 80.6---
2024-06-21 05:35 pm E 11.7 13.6----29.98- 83.5 83.8 80.1---
2024-06-21 05:05 pm E 11.7 13.6----29.99- 83.3 83.8 80.2---
2024-06-21 04:35 pm E 11.7 15.5----29.99- 83.3 83.8 79.9---
2024-06-21 04:05 pm E 11.7 13.6----30.01- 83.3 83.8 80.1---
2024-06-21 03:35 pm E 11.7 15.5----30.01- 82.9 83.8 80.1---
2024-06-21 03:05 pm E 13.6 15.5----30.01- 82.9 83.8 80.1---
2024-06-21 02:35 pm E 13.6 15.5----30.01- 82.9 84.0 79.9---
2024-06-21 02:05 pm E 13.6 19.4----30.03- 82.9 83.8 79.9---